Regional Weather Roundup
Issued by NWS

Home | Current Version | Previous Version | Graphics & Text | Print | Product List | Glossary On
Versions: 1 2 3 4 5 6 7 8 9 10 11 12 13 14 15 16 17 18 19 20 21 22 23 24 25 26 27 28 29 30 31 32 33 34 35 36 37 38 39 40 41 42 43 44 45 46 47 48 49 50
000
ASUS45 KABQ 202101
RWRNM
WEATHER ROUNDUP FOR NEW MEXICO
NATIONAL WEATHER SERVICE ALBUQUERQUE NM
300 PM MDT MON APR 20 2015

NOTE: "FAIR" MEANS FEW OR NO CLOUDS BELOW 12,000 FEET AGL WITH NO
       SIGNIFICANT WEATHER OR OBSTRUCTIONS TO VISION.

      THIS PRODUCT IS RELEASED AS TWO VERSIONS.  ONE VERSION NEAR
      THE TOP OF THE HOUR CONTAINING PRELIMINARY DATA FROM ALBUQUERQUE
      AND OTHER STATIONS.  A FINAL VERSION WITH ADDITIONAL DATA IS
      ISSUED ABOUT 10 MINUTES AFTER THE HOUR.

NMZ501-503-504-510>518-202200-
NORTHWEST PLATEAU/NORTHCENTRAL MOUNTAINS

CITY           SKY/WX    TMP DP  RH WIND       PRES   REMARKS
FARMINGTON     SUNNY     68  17  14 W16       29.89F
SANTA FE       PTSUNNY   66  22  18 W22G29    29.91F
TAOS           PTSUNNY   63  18  17 W23G33    29.91F
ANGEL FIRE     MOCLDY    49  24  38 W12G49    29.97F

$$
NMZ402-403-502-505>509-202200-
WESTCENTRAL MOUNTAINS/SOUTHWEST MOUNTAINS

CITY           SKY/WX    TMP DP  RH WIND       PRES   REMARKS
GALLUP         PTSUNNY   65  16  15 W17       29.98F
GRANTS         PTSUNNY   67  15  14 NW17G33   29.97F
SILVER CITY      N/A     73  18  12 SW12G22   29.95F

$$
NMZ407-409-411-412-202200-
SOUTHERN DESERTS

CITY           SKY/WX    TMP DP  RH WIND       PRES   REMARKS
DEMING         SUNNY     78  21  12 VRB6      29.89F
ALAMOGORDO     SUNNY     75  25  15 SW12      29.90F
T OR C         MOSUNNY   75  20  12 S17G28    29.88F

$$
NMZ519>523-202200-
CENTRAL VALLEYS/CENTRAL HIGHLANDS

CITY           SKY/WX    TMP DP  RH WIND       PRES   REMARKS
ALBUQUERQUE    PTSUNNY   64  29  26 CALM      29.93F
DOUBLE EAGLE   MOSUNNY   64  27  24 W15       29.94F
MORIARTY ARPT  FAIR      65  19  17 W31G40    29.96S
CLINES CORNERS MOSUNNY   65  19  17 W17G28    29.94F
BELEN          FAIR      73  18  12 W8G16     29.91S
SOCORRO        NOT AVBL

$$
NMZ524>526-539-540-202200-
SOUTHCENTRAL MOUNTAINS

CITY           SKY/WX    TMP DP  RH WIND       PRES   REMARKS
RUIDOSO        NOT AVBL

$$
NMZ527>531-202200-
NORTHEAST HIGHLANDS/NORTHEAST PLAINS

CITY           SKY/WX    TMP DP  RH WIND       PRES   REMARKS
LAS VEGAS      PTSUNNY   62  17  17 NW23G30   29.90F
RATON          CLOUDY    55  31  39 SE8       29.90F
CLAYTON        LGT RAIN  51  40  65 SW14G39   29.94R

$$
NMZ532>537-202200-
EASTCENTRAL PLAINS

CITY           SKY/WX    TMP DP  RH WIND       PRES   REMARKS
TUCUMCARI      SUNNY     71  34  25 S16G22    29.86F
CANNON AFB     NOT AVBL
CLOVIS AIRPORT SUNNY     66  36  32 S21G33    29.92F

$$
NMZ028-029-538-202200-
SOUTHEAST PLAINS

CITY           SKY/WX    TMP DP  RH WIND       PRES   REMARKS
ROSWELL        SUNNY     71  37  28 S20G25    29.91F
ARTESIA        SUNNY     70  37  30 S13G20    29.93F
CARLSBAD       SUNNY     72  36  26 S15G25    29.91F
HOBBS          SUNNY     66  36  32 SE16      29.96F


$$


USA.gov is the U.S. government's official web portal to all federal, state and local government web resources and services.